EW9092 Weather Reports


time (UTC)temp
C
wind
direction
speed
KPH
gust
KPH
rain 1hr
cm
rain 24hr
cm
rain mn
cm
humidity
%
barometer
mb
20260506092258 13 179 1.6 4.8 0.00 0.20 0.00 66 1014.7
20260506091800 13 149 1.6 6.4 0.00 0.23 0.00 66 1014.6
20260506091259 13 146 1.6 6.4 0.00 0.23 0.00 65 1014.5
20260506090758 13 144 1.6 4.8 0.00 0.25 0.00 65 1014.6
20260506090259 13 211 1.6 4.8 0.00 0.25 0.00 65 1014.6
20260506085800 14 191 1.6 4.8 0.00 0.28 0.00 65 1014.6
20260506085258 14 158 1.6 6.4 0.00 0.28 0.00 65 1014.6
20260506084756 14 146 1.6 6.4 0.00 0.30 0.00 64 1014.7
20260506084520 14 104 1.6 6.4 0.00 0.30 0.00 64 1014.7
20260506084018 14 196 0.0 3.2 0.00 0.33 0.00 64 1014.7
20260506083256 14 215 1.6 4.8 0.00 0.33 0.00 63 1014.6
20260506082754 15 162 1.6 4.8 0.00 0.33 0.00 62 1014.7
20260506082245 15 231 0.0 3.2 0.00 0.36 0.00 62 1014.7
20260506082008 15 217 0.0 3.2 0.00 0.36 0.00 61 1014.7
20260506081505 15 219 1.6 4.8 0.00 0.38 0.00 60 1014.7
20260506080738 15 229 1.6 4.8 0.00 0.38 0.00 60 1014.8
20260506080240 15 235 0.0 6.4 0.00 0.41 0.00 60 1014.8
20260506073232 15 224 1.6 4.8 0.00 0.51 0.00 58 1014.9
20260506072732 16 245 1.6 4.8 0.00 0.53 0.00 57 1014.9
20260506072453 16 255 1.6 4.8 0.00 0.53 0.00 57 1014.9
20260506071732 16 271 1.6 4.8 0.00 0.56 0.00 57 1014.8
20260506071228 16 260 1.6 6.4 0.00 0.56 0.00 57 1014.8
20260506070727 16 271 1.6 6.4 0.00 0.58 0.00 56 1014.8
20260506070224 16 253 1.6 4.8 0.00 0.58 0.00 56 1014.8
20260506062148 16 252 3.2 8.0 0.00 0.66 0.58 51 1014.5
20260506061648 16 256 4.8 9.7 0.00 0.69 0.58 50 1014.5
20260506061424 17 265 4.8 11.3 0.00 0.69 0.58 49 1014.5
20260506060646 17 227 4.8 11.3 0.00 0.71 0.58 50 1014.5
20260506060146 17 255 4.8 9.7 0.00 0.71 0.58 51 1014.5
20260506051134 17 267 4.8 12.9 0.00 0.76 0.58 50 1014.1
20260506050628 17 230 4.8 11.3 0.00 0.76 0.58 49 1014.1
20260506050128 17 263 3.2 11.3 0.00 0.76 0.58 49 1014.0
20260506045126 17 252 4.8 12.9 0.00 0.79 0.58 48 1013.9
20260506044628 18 251 6.4 12.9 0.00 0.79 0.58 48 1013.9
20260506044126 18 259 4.8 12.9 0.00 0.79 0.58 47 1013.8
20260506043626 18 281 6.4 12.9 0.00 0.79 0.58 47 1013.7
20260506043125 18 240 6.4 12.9 0.00 0.79 0.58 47 1013.8
20260506042626 18 266 6.4 12.9 0.00 0.79 0.58 46 1013.6
20260506042126 18 257 6.4 11.3 0.00 0.79 0.58 45 1013.5
20260506041625 18 274 6.4 14.5 0.00 0.79 0.58 44 1013.4
20260506041126 18 288 8.0 14.5 0.00 0.79 0.58 44 1013.3
20260506040626 18 231 6.4 19.3 0.00 0.79 0.58 42 1013.2
20260506040344 18 271 4.8 19.3 0.00 0.79 0.58 39 1013.1
20260506035614 18 274 4.8 12.9 0.00 0.79 0.58 37 1013.1
20260506035110 18 262 4.8 9.7 0.00 0.79 0.58 36 1013.1
20260506034838 18 258 4.8 12.9 0.00 0.79 0.58 36 1012.9
20260506034107 19 256 6.4 12.9 0.00 0.79 0.58 36 1012.8
20260506033827 19 262 4.8 12.9 0.00 0.79 0.58 36 1012.8
20260506033106 19 278 3.2 9.7 0.00 0.79 0.58 35 1012.7
20260506032605 19 260 3.2 6.4 0.00 0.79 0.58 35 1012.6
20260506032107 19 256 3.2 6.4 0.00 0.79 0.58 34 1012.5
20260506031606 19 246 4.8 12.9 0.00 0.81 0.58 34 1012.5
20260506031103 19 258 6.4 14.5 0.00 0.81 0.58 33 1012.5
20260506030604 19 271 8.0 14.5 0.00 0.81 0.58 32 1012.4
20260506030107 19 248 6.4 14.5 0.00 0.81 0.58 32 1012.3
20260506030043 20 283 8.0 14.5 0.00 0.84 0.58 32 1012.3
20260506025057 20 274 8.0 14.5 0.00 0.86 0.58 32 1012.2
20260506024557 20 273 9.7 20.9 0.00 0.89 0.58 32 1012.1
20260506024056 20 329 9.7 20.9 0.00 0.89 0.58 33 1012.1
20260506023556 20 282 8.0 19.3 0.00 0.91 0.58 34 1011.9
20260506023057 20 271 8.0 20.9 0.00 0.94 0.58 34 1011.8
20260506022556 20 248 8.0 20.9 0.00 0.94 0.58 34 1011.8
20260506022057 20 259 8.0 20.9 0.00 0.97 0.58 34 1011.6
20260506021557 20 251 8.0 20.9 0.00 0.97 0.58 34 1011.5
20260506021057 20 257 9.7 17.7 0.00 0.97 0.58 34 1011.4
20260506020556 20 257 11.3 20.9 0.00 0.97 0.58 33 1011.3
20260506020319 20 243 11.3 22.5 0.00 0.99 0.58 33 1011.2
20260506015559 21 284 9.7 22.5 0.00 0.99 0.58 33 1011.2
20260506015059 21 243 11.3 27.4 0.00 1.02 0.58 33 1011.1
20260506014558 21 278 12.9 27.4 0.00 1.04 0.58 32 1011.1
20260506014100 21 246 12.9 22.5 0.00 1.07 0.58 32 1011.0
20260506013637 22 271 12.9 22.5 0.00 1.12 0.58 31 1011.0
20260506012549 22 233 11.3 22.5 0.00 1.14 0.58 28 1010.9
20260506012047 22 276 11.3 20.9 0.00 1.14 0.58 26 1010.8
20260506011547 22 278 12.9 24.1 0.00 1.17 0.58 27 1010.8
20260506011047 22 268 12.9 25.7 0.00 1.17 0.58 26 1010.8
20260506010548 23 248 12.9 25.7 0.00 1.17 0.58 27 1010.7
20260506010047 23 234 11.3 22.5 0.00 1.19 0.58 27 1010.6
20260506005549 23 262 11.3 25.7 0.00 1.19 0.58 26 1010.7
20260506005043 23 295 11.3 25.7 0.00 1.22 0.58 27 1010.6
20260506004546 23 271 11.3 22.5 0.00 1.22 0.58 27 1010.6
20260506004046 23 274 11.3 22.5 0.00 1.24 0.58 27 1010.5
20260506003546 23 212 12.9 25.7 0.00 1.24 0.58 27 1010.5
20260506003047 23 269 14.5 25.7 0.00 1.27 0.58 28 1010.5
20260506002546 23 232 12.9 27.4 0.00 1.27 0.58 27 1010.5
20260506002046 23 244 11.3 27.4 0.00 1.27 0.58 28 1010.3
20260506001815 23 269 11.3 19.3 0.00 1.27 0.58 29 1010.2
20260506001039 23 226 9.7 22.5 0.00 1.27 0.58 28 1010.3
20260506000544 23 281 11.3 22.5 0.00 1.27 0.58 29 1010.3
20260506000047 23 286 11.3 20.9 0.00 1.27 0.58 28 1010.3
20260505235544 23 229 9.7 20.9 0.00 1.27 0.58 28 1010.2
20260505235042 23 229 12.9 25.7 0.00 1.27 0.58 29 1010.1
20260505234537 22 240 12.9 25.7 0.00 1.27 0.58 28 1010.2
20260505234036 23 191 11.3 29.0 0.00 1.27 0.58 27 1010.2
20260505233535 23 243 9.7 29.0 0.00 1.27 0.58 27 1010.0
20260505233034 23 255 9.7 24.1 0.00 1.27 0.58 26 1010.1
20260505232534 23 231 11.3 25.7 0.00 1.27 0.58 27 1010.1
20260505232257 23 236 12.9 25.7 0.00 1.27 0.58 27 1010.1
20260505231533 23 249 12.9 24.1 0.00 1.27 0.58 26 1010.2
20260505231020 23 264 11.3 25.7 0.00 1.27 0.58 26 1010.1
20260505230516 23 252 12.9 33.8 0.00 1.27 0.58 26 1010.2
20260505230010 23 271 16.1 33.8 0.00 1.27 0.58 27 1010.2
20260505225721 23 280 14.5 30.6 0.00 1.27 0.58 27 1010.2
20260505224954 23 260 12.9 25.7 0.00 1.27 0.58 27 1010.5
20260505224554 23 269 11.3 24.1 0.00 1.27 0.58 27 1010.3
20260505223941 23 269 16.1 37.0 0.00 1.27 0.58 26 1010.5
20260505222954 23 249 16.1 37.0 0.00 1.27 0.58 26 1010.6
20260505222453 23 252 14.5 30.6 0.00 1.27 0.58 27 1010.5
20260505221953 23 257 14.5 32.2 0.00 1.27 0.58 27 1010.5
20260505221453 23 248 14.5 32.2 0.00 1.27 0.58 28 1010.5
20260505220953 23 359 14.5 29.0 0.00 1.27 0.58 28 1010.6
20260505220453 23 264 12.9 29.0 0.00 1.27 0.58 28 1010.6
20260505215953 23 271 12.9 25.7 0.00 1.27 0.58 29 1010.6
20260505215453 24 244 12.9 30.6 0.00 1.27 0.58 29 1010.7
20260505214953 24 229 12.9 30.6 0.00 1.27 0.58 29 1010.8
20260505214457 23 264 14.5 30.6 0.00 1.27 0.58 31 1010.7
20260505213947 23 221 17.7 30.6 0.00 1.27 0.58 30 1010.9
20260505213441 23 229 16.1 30.6 0.00 1.27 0.58 32 1010.9
20260505213200 23 247 16.1 30.6 0.00 1.27 0.58 31 1010.9
20260505212425 23 252 17.7 30.6 0.00 1.27 0.58 33 1011.0
20260505211918 23 288 16.1 32.2 0.00 1.27 0.58 34 1011.0
20260505211412 23 227 16.1 30.6 0.00 1.27 0.58 35 1011.1
20260505210902 22 230 17.7 30.6 0.00 1.27 0.58 36 1011.0
20260505210355 22 264 17.7 33.8 0.00 1.27 0.58 35 1011.1
20260505210118 22 215 16.1 33.8 0.00 1.27 0.58 37 1011.2
20260505205349 23 214 16.1 27.4 0.00 1.27 0.58 37 1011.2
20260505204849 23 259 11.3 27.4 0.00 1.27 0.58 37 1011.2
20260505204349 22 243 8.0 17.7 0.00 1.27 0.58 39 1011.2
20260505204109 22 254 9.7 20.9 0.00 1.27 0.58 38 1011.2
20260505203350 22 216 9.7 20.9 0.00 1.27 0.58 38 1011.3
20260505202849 22 230 4.8 17.7 0.00 1.27 0.58 39 1011.3
20260505202349 22 220 1.6 8.0 0.00 1.27 0.58 44 1011.4
20260505201854 22 245 3.2 8.0 0.00 1.27 0.58 47 1011.4
20260505201350 22 243 3.2 9.7 0.00 1.27 0.58 47 1011.5
20260505200851 22 281 4.8 16.1 0.00 1.27 0.58 46 1011.4
20260505200349 22 210 4.8 16.1 0.00 1.27 0.58 48 1011.6
20260505195850 22 268 4.8 14.5 0.00 1.27 0.58 48 1011.6
20260505195350 22 273 6.4 14.5 0.00 1.27 0.58 48 1011.8
20260505195108 22 239 4.8 14.5 0.00 1.27 0.58 47 1011.8
20260505194338 22 309 3.2 9.7 0.00 1.27 0.58 47 1011.9
20260505193831 22 358 4.8 14.5 0.00 1.27 0.58 48 1011.8
20260505193333 22 356 4.8 14.5 0.00 1.27 0.58 46 1011.8
20260505192831 22 291 3.2 9.7 0.00 1.27 0.58 47 1011.9
20260505192553 22 278 4.8 14.5 0.00 1.27 0.58 48 1011.9
20260505192057 22 326 3.2 14.5 0.00 1.27 0.58 49 1011.9
20260505191329 22 221 1.6 6.4 0.00 1.27 0.58 49 1012.0
20260505191049 21 350 3.2 11.3 0.00 1.27 0.58 50 1012.2
20260505190325 21 287 4.8 12.9 0.00 1.27 0.58 52 1012.3
20260505185826 21 311 6.4 12.9 0.00 1.27 0.58 53 1012.4
20260505185326 21 300 4.8 11.3 0.00 1.27 0.58 53 1012.5
20260505185047 21 286 4.8 17.7 0.00 1.27 0.58 52 1012.6
20260505184324 21 219 3.2 17.7 0.00 1.27 0.58 51 1012.5
20260505183824 21 267 0.0 6.4 0.00 1.27 0.58 53 1012.6
20260505183323 21 268 3.2 9.7 0.00 1.27 0.58 55 1012.6
20260505182821 20 346 4.8 9.7 0.00 1.27 0.58 56 1012.7
20260505182319 20 329 3.2 9.7 0.00 1.27 0.58 56 1012.7
20260505181814 20 45 3.2 9.7 0.00 1.27 0.58 58 1012.8
20260505181309 20 1 1.6 8.0 0.00 1.27 0.58 59 1012.9
20260505180809 20 306 1.6 8.0 0.00 1.27 0.58 61 1013.1
20260505180308 19 332 3.2 11.3 0.00 1.27 0.58 60 1013.1
20260505175807 20 6 3.2 11.3 0.00 1.27 0.58 59 1012.9
20260505175307 20 29 1.6 4.8 0.00 1.27 0.58 58 1013.2
20260505174807 20 24 1.6 6.4 0.00 1.27 0.58 58 1013.2
20260505174309 20 269 1.6 8.0 0.00 1.27 0.58 58 1013.2
20260505174032 20 232 1.6 8.0 0.00 1.27 0.58 56 1013.2
20260505173305 20 60 1.6 6.4 0.00 1.27 0.58 57 1013.2
20260505173032 20 82 1.6 4.8 0.00 1.27 0.58 58 1013.3
20260505172521 20 118 1.6 4.8 0.00 1.27 0.58 58 1013.4
20260505171805 20 142 0.0 1.6 0.00 1.27 0.58 59 1013.3
20260505171302 20 126 0.0 1.6 0.00 1.27 0.58 60 1013.3
20260505170802 20 87 0.0 1.6 0.00 1.27 0.58 59 1013.3
20260505170300 19 250 0.0 0.0 0.00 1.27 0.58 62 1013.2
20260505165754 19 250 0.0 0.0 0.00 1.27 0.58 62 1013.2
20260505165515 18 250 0.0 3.2 0.00 1.27 0.58 65 1013.3
20260505165244 18 250 0.0 3.2 0.00 1.27 0.58 66 1013.2
20260505164250 18 250 0.0 3.2 0.00 1.27 0.58 66 1013.2
20260505163747 17 279 0.0 4.8 0.00 1.27 0.58 69 1013.3
20260505163250 17 279 1.6 4.8 0.00 1.27 0.58 71 1013.3
20260505163010 17 278 1.6 4.8 0.00 1.27 0.58 70 1013.3
20260505162249 17 250 1.6 4.8 0.00 1.27 0.58 70 1013.4
20260505161752 17 254 0.0 6.4 0.00 1.27 0.58 70 1013.3
20260505161740 17 260 1.6 6.4 0.00 1.27 0.58 71 1013.3
20260505160749 17 262 1.6 3.2 0.00 1.27 0.58 70 1013.3
20260505160246 17 250 1.6 4.8 0.00 1.27 0.58 70 1013.2
20260505153236 16 229 0.0 0.0 0.00 1.27 0.58 80 1013.1
20260505152733 16 134 0.0 0.0 0.00 1.27 0.58 80 1013.1
20260505152233 16 216 0.0 0.0 0.00 1.27 0.58 78 1013.1
20260505151733 16 216 0.0 0.0 0.00 1.27 0.58 81 1013.1
20260505151231 16 141 0.0 0.0 0.00 1.27 0.58 82 1013.1
20260505150730 16 142 0.0 0.0 0.00 1.27 0.58 83 1013.1
20260505150232 16 142 0.0 0.0 0.00 1.27 0.58 83 1012.9
20260505140225 15 88 1.6 6.4 0.00 1.27 0.58 88 1012.6
20260505130225 14 338 0.0 0.0 0.00 1.27 0.58 91 1012.2
20260505124724 14 256 0.0 0.0 0.00 1.27 0.58 91 1012.1
20260505124228 14 256 0.0 0.0 0.00 1.27 0.58 91 1012.1
20260505123510 14 256 0.0 0.0 0.03 1.27 0.58 90 1012.1
20260505123011 14 140 0.0 3.2 0.03 1.27 0.58 90 1011.9
20260505122511 14 140 0.0 3.2 0.03 1.27 0.58 90 1011.5
20260505122010 14 145 0.0 1.6 0.03 1.27 0.58 91 1011.9
20260505121738 14 349 0.0 0.0 0.03 1.27 0.58 90 1011.9
20260505121010 14 349 0.0 0.0 0.05 1.27 0.58 90 1011.6
20260505120508 14 349 0.0 0.0 0.05 1.27 0.58 90 1011.5
20260505120449 14 349 0.0 0.0 0.05 1.27 0.58 90 1011.5
20260505115504 14 349 0.0 0.0 0.08 1.27 0.58 90 1011.4
20260505115007 14 349 0.0 0.0 0.08 1.27 0.58 90 1011.6
20260505114502 14 349 0.0 0.0 0.08 1.27 0.58 90 1011.5
20260505114001 14 347 0.0 0.0 0.08 1.24 0.56 90 1011.5
20260505113502 14 334 0.0 0.0 0.08 1.24 0.56 90 1011.4
20260505113002 14 300 0.0 0.0 0.08 1.24 0.56 90 1011.9
20260505112729 14 300 0.0 0.0 0.10 1.24 0.56 90 1012.2
20260505111959 14 300 0.0 0.0 0.10 1.24 0.56 90 1012.0
20260505111502 14 300 0.0 0.0 0.13 1.24 0.56 90 1011.8
20260505110952 14 300 0.0 0.0 0.10 1.22 0.53 89 1011.9
20260505110446 14 300 0.0 0.0 0.10 1.22 0.53 89 1012.1
20260505102054 14 345 1.6 4.8 0.10 1.14 0.46 89 1012.8
20260505101334 14 335 0.0 3.2 0.08 1.12 0.43 88 1012.8
20260505100823 14 257 0.0 0.0 0.10 1.12 0.43 87 1012.8
20260505100318 14 257 0.0 0.0 0.10 1.12 0.43 86 1012.9
20260505100041 14 245 0.0 3.2 0.13 1.12 0.43 87 1013.1
20260505094756 14 147 1.6 4.8 0.15 1.12 0.43 88 1012.9
20260505094250 14 140 1.6 6.4 0.15 1.12 0.43 87 1013.1
20260505093739 14 77 1.6 6.4 0.18 1.12 0.43 88 1013.2
20260505093233 14 59 1.6 6.4 0.15 1.09 0.41 88 1013.3
20260505092728 14 128 1.6 8.0 0.15 1.07 0.38 88 1013.8